GFSGBSN_850_rhum_096.txt.gz
RH
45 45 45 47 49 52 59 70 69 74 78 91 99 100 100 100 100 100 94 77 59 48 42 26 13 10 10 11 13 17 17 14 17 9 20 16 24 25 22 25 30 37 34 30 28 25 25
37 39 42 42 38 38 39 45 52 52 50 84 88 98 100 100 100 100 92 84 55 40 44 22 14 11 14 19 22 15 19 15 10 19 21 19 24 23 32 34 27 23 23 21 22 23 23
25 22 26 31 32 37 35 35 38 38 43 52 73 100 100 100 99 99 99 85 80 55 48 19 16 17 29 17 24 15 11 22 18 23 22 34 25 39 30 26 25 27 36 32 30 28 29
21 19 22 30 28 25 22 25 31 37 43 61 99 99 98 100 99 99 99 93 85 68 40 20 25 67 74 28 18 16 14 23 27 24 23 24 32 30 23 21 26 30 35 40 30 27 24
40 22 30 34 34 30 22 22 27 38 46 65 92 98 99 100 100 98 98 91 96 84 48 30 89 84 68 30 23 16 8 10 28 26 27 28 26 23 22 30 38 39 49 42 35 27 27
56 30 24 29 41 37 30 24 30 42 56 67 99 100 100 100 100 99 97 92 95 86 62 76 94 83 46 30 37 34 25 16 15 23 28 30 27 30 37 39 48 49 47 43 40 29 28
85 38 27 28 38 36 33 36 43 46 65 90 97 98 99 100 100 100 99 95 95 94 84 75 72 52 31 46 33 26 34 33 33 29 38 30 39 41 31 34 33 35 38 43 38 32 31
90 75 47 32 36 39 52 69 69 96 100 99 100 100 99 100 100 99 92 96 87 95 96 83 68 62 39 38 49 27 33 35 39 47 36 40 46 32 29 30 32 34 38 41 35 31 34
98 92 74 48 38 69 98 100 98 98 98 96 100 100 100 100 100 100 92 83 82 83 78 61 49 46 58 51 50 44 27 33 33 46 45 49 37 33 35 38 40 41 42 41 40 34 33
98 89 76 54 39 81 89 95 95 94 96 98 99 100 100 100 100 95 91 79 62 69 69 36 45 47 47 58 62 21 31 25 30 41 46 47 37 38 42 42 42 49 38 38 41 44 52
99 99 84 78 50 87 87 94 100 100 100 100 100 100 100 100 94 85 86 46 61 64 84 24 42 30 50 49 30 41 32 23 32 35 41 46 36 45 45 41 38 45 38 42 42 47 54
98 100 92 83 91 90 98 100 100 100 100 100 100 100 98 100 95 100 80 63 67 76 74 34 38 52 65 47 36 35 30 24 23 29 32 36 27 29 34 31 34 28 34 41 52 56 61
98 100 99 99 95 97 100 99 98 97 98 99 99 100 99 98 98 97 86 76 73 80 36 43 47 48 45 42 41 36 34 43 46 48 46 36 33 27 28 30 30 32 39 53 55 68 61
92 93 100 94 90 88 85 85 86 92 97 99 100 100 93 93 99 97 82 86 69 32 26 22 33 45 50 41 30 34 43 41 27 46 49 46 42 40 40 41 43 43 42 58 64 71 60
97 93 95 99 100 98 97 95 100 99 99 99 100 82 50 87 99 90 81 96 58 40 31 35 50 49 27 22 25 25 33 36 30 29 49 58 56 38 32 30 41 45 51 46 54 58 65
88 92 92 96 98 98 99 99 98 99 99 99 91 94 50 96 93 83 98 78 53 41 38 43 88 59 31 32 28 30 35 37 31 37 32 39 32 46 32 35 34 36 44 75 86 86 75
83 88 90 91 95 96 98 98 100 100 99 79 52 89 68 91 83 97 97 74 40 40 37 46 44 44 38 36 36 38 46 43 36 41 45 46 40 41 29 41 39 37 53 77 81 88 97
81 92 97 98 97 97 94 96 85 93 100 62 92 97 82 90 96 88 94 58 38 46 43 46 58 53 49 45 43 49 53 50 44 39 48 48 64 61 42 42 46 44 82 75 93 92 88
82 91 87 92 94 99 96 92 54 58 80 91 81 94 94 85 99 97 64 50 53 48 54 52 53 50 49 49 48 48 53 47 49 45 46 40 61 49 34 40 38 57 52 60 68 83 92
86 89 92 99 98 91 98 77 56 73 80 85 70 89 84 94 84 79 55 55 54 48 52 51 55 50 49 52 51 53 57 50 44 57 57 48 60 44 39 38 64 66 62 59 73 98 80
85 88 90 90 96 87 77 62 58 64 76 81 90 78 62 94 86 68 51 51 53 51 46 47 56 56 54 54 55 63 56 50 47 51 59 59 63 66 62 64 58 60 50 45 61 59 83
81 84 91 98 98 85 72 65 53 56 71 84 73 76 66 63 56 58 57 51 52 48 49 51 59 50 48 55 52 59 53 50 47 54 57 69 77 63 67 58 54 51 52 57 59 59 60
80 91 96 96 86 78 69 58 51 58 80 76 68 66 64 63 54 54 52 53 48 47 39 43 48 52 56 52 45 41 41 42 42 56 61 63 82 78 66 58 52 44 54 86 87 78 85
79 75 96 92 82 76 59 54 48 60 77 67 61 65 55 72 54 54 48 44 48 44 47 42 39 50 45 44 46 53 56 57 58 59 54 80 73 80 82 63 63 67 84 86 92 90 92
72 68 87 76 80 67 50 64 84 74 67 58 61 58 50 83 53 49 48 50 47 52 59 61 57 53 49 53 67 62 67 60 66 68 69 63 80 93 88 96 63 68 88 97 98 87 97
67 71 88 70 75 51 60 90 80 69 68 64 58 54 43 77 72 60 53 47 60 68 72 58 55 50 49 89 89 86 92 76 72 77 72 71 66 85 91 97 99 92 81 82 94 96 95
81 81 82 69 53 52 79 88 76 68 64 63 60 47 44 64 70 54 57 62 57 70 76 68 65 60 58 96 99 97 94 73 92 98 93 88 93 91 92 96 90 90 86 92 98 97 97
95 94 95 72 50 52 76 83 72 62 57 60 57 44 38 60 66 54 48 53 57 58 80 66 72 71 85 92 89 97 96 92 91 94 98 96 95 94 86 97 95 93 77 89 98 97 97
100 99 83 73 55 58 64 68 69 58 50 59 54 46 42 43 63 55 51 48 47 44 51 67 66 86 74 93 94 94 98 97 96 98 87 96 97 97 95 98 98 97 98 98 97 97 97

GFSGBSN_850_rhum_102.txt.gz
RH
38 35 35 34 30 32 32 34 33 33 34 33 31 30 31 40 46 87 100 100 100 100 100 99 93 93 84 48 44 42 33 21 22 18 28 26 21 18 16 13 14 20 13 13 14 15 15
29 25 22 19 18 17 19 21 21 24 24 26 25 24 26 33 39 70 88 100 99 99 99 99 90 94 71 66 59 57 39 22 25 27 28 24 20 17 14 12 13 14 17 16 19 19 18
14 14 13 13 13 12 13 15 15 17 18 23 22 22 26 30 34 98 94 100 95 100 94 100 97 91 93 71 64 60 48 24 39 35 28 23 20 19 16 17 16 19 20 16 17 17 15
12 12 12 12 12 12 12 13 13 14 16 18 22 21 26 33 59 96 97 99 98 100 93 100 97 93 88 68 61 57 48 34 25 40 33 25 27 25 25 20 21 21 20 23 16 16 17
13 12 12 12 11 11 10 10 10 11 14 17 25 21 24 34 90 93 99 98 97 99 100 100 92 88 80 62 56 52 51 43 34 44 37 39 33 28 29 27 23 22 23 22 19 19 18
18 15 14 11 11 10 10 10 10 13 15 18 23 25 41 48 99 94 99 96 100 100 100 93 92 99 78 60 48 37 40 43 33 28 41 41 35 29 27 24 32 25 24 21 22 17 19
36 20 15 14 11 10 13 16 19 17 21 28 33 47 90 91 98 100 97 100 99 100 100 83 74 64 56 48 42 45 45 46 30 28 36 33 37 32 26 23 22 22 21 22 19 17 22
66 56 68 55 18 13 23 34 31 33 45 48 75 99 96 91 99 95 100 100 93 86 77 82 79 75 72 67 50 43 48 36 25 26 29 36 45 29 22 21 24 25 25 23 18 16 16
81 86 92 58 32 37 44 46 48 62 79 88 100 99 95 99 98 100 98 100 98 92 86 66 66 71 66 69 63 48 45 36 31 32 25 50 39 25 23 28 31 27 24 22 19 20 22
83 84 97 95 91 75 54 60 56 72 84 91 92 93 99 100 100 99 100 99 99 95 99 49 57 58 64 67 61 58 48 41 47 59 48 58 40 40 32 31 26 28 19 19 23 29 27
81 92 92 92 92 84 71 65 60 85 89 89 92 97 100 93 97 100 97 99 98 79 90 33 40 44 50 58 41 46 54 42 47 46 53 56 44 52 57 31 23 26 22 29 26 30 29
83 84 86 89 87 81 71 67 65 65 93 96 99 99 99 100 100 98 100 98 85 95 92 42 30 39 46 49 42 39 56 47 51 87 89 66 57 60 56 50 42 27 32 30 30 30 39
86 80 82 88 99 85 92 84 90 91 99 100 100 100 100 100 97 100 97 97 97 94 40 41 39 44 40 37 41 39 64 61 77 94 86 61 55 31 31 36 35 39 36 49 50 46 36
87 81 87 89 100 100 100 99 99 100 100 100 100 99 100 98 98 97 98 98 95 69 41 23 25 30 47 33 36 36 61 72 54 40 41 51 55 29 25 28 31 39 32 45 52 35 26
80 86 95 93 88 100 100 98 100 95 93 95 96 97 100 100 100 100 98 93 83 56 42 38 34 50 42 32 27 30 38 44 33 31 40 40 42 31 27 27 29 30 36 23 33 32 34
84 96 99 89 85 100 100 100 99 98 97 98 98 100 100 100 100 100 98 76 57 36 32 34 50 80 56 31 33 34 34 29 32 32 30 37 47 34 26 26 24 34 27 48 42 46 40
74 92 100 99 78 85 99 99 99 99 96 62 76 74 100 100 100 99 85 57 48 40 34 45 51 67 66 40 33 61 38 38 38 40 35 37 34 37 28 32 28 28 38 50 46 44 44
77 85 100 99 90 83 93 98 100 100 98 99 90 81 99 99 100 98 69 49 46 42 40 44 56 57 68 49 65 60 51 43 54 47 45 36 32 31 33 36 28 25 36 35 42 37 43
73 78 97 99 84 88 96 91 92 100 94 88 95 95 100 99 93 74 55 47 45 44 42 53 56 61 42 54 46 67 72 69 60 51 44 32 33 44 36 37 35 36 41 40 43 41 42
80 84 99 99 96 96 96 97 85 95 98 97 76 90 99 99 98 68 61 54 52 42 42 45 51 62 53 49 38 47 50 46 52 48 55 34 28 25 25 37 37 47 42 35 44 57 36
77 77 88 98 97 97 98 84 83 98 94 100 76 73 56 88 82 68 55 47 51 49 46 42 52 70 88 54 45 47 41 47 44 49 43 37 32 32 35 36 34 35 35 31 31 26 35
93 90 83 99 93 98 98 97 64 97 88 100 97 57 60 45 53 63 63 49 45 46 44 45 56 43 50 64 46 46 40 37 37 40 41 43 53 42 35 33 34 36 27 26 27 25 23
88 78 70 99 98 100 98 97 69 98 98 98 92 81 54 54 48 63 53 44 42 39 46 52 42 41 41 42 39 39 38 37 37 37 42 39 54 43 25 33 32 30 31 26 24 25 41
91 77 91 99 100 100 98 95 72 93 88 98 88 78 66 59 39 52 40 39 39 37 44 40 38 39 48 49 45 40 38 37 34 39 31 40 40 39 34 39 55 66 58 65 70 61 72
99 100 99 99 98 98 98 95 64 57 70 92 91 86 62 60 35 43 40 40 39 42 44 44 56 61 53 44 41 47 53 52 60 53 38 33 43 60 66 54 43 76 76 89 89 78 86
99 98 99 99 96 97 81 92 65 55 64 94 86 73 68 62 48 42 45 41 42 43 50 58 66 61 59 48 51 49 48 42 62 67 56 46 43 58 60 69 62 92 62 60 83 87 77
98 98 99 97 91 73 72 70 61 68 88 96 78 68 61 80 67 54 41 45 48 45 44 52 54 54 63 64 70 63 59 49 63 70 76 72 69 67 62 65 85 83 63 73 92 92 83
99 100 98 87 76 55 63 85 86 84 81 87 68 64 60 71 75 73 62 54 57 43 47 62 54 57 55 56 52 67 65 61 70 92 82 70 72 68 58 74 86 72 62 88 94 95 96
95 96 90 68 58 80 92 82 77 72 67 65 62 51 52 70 76 61 55 50 47 46 51 62 54 60 58 48 48 54 68 74 68 82 77 88 90 84 86 88 84 88 93 100 100 97 99

GFSGBSN_850_rhum_105.txt.gz
RH
46 43 39 38 34 33 31 30 29 31 31 31 30 31 30 28 30 38 50 68 86 98 100 98 98 96 90 67 58 55 51 46 35 23 28 27 25 23 22 18 15 16 14 14 11 11 12
40 35 29 23 19 17 16 15 15 16 17 17 17 20 21 23 26 33 45 88 87 86 100 100 98 98 89 72 58 52 44 50 40 39 34 29 26 24 21 18 16 14 12 13 14 12 13
19 16 14 14 13 12 12 12 12 13 13 13 14 15 18 20 25 36 89 71 99 94 96 92 94 98 89 75 61 50 45 39 44 40 38 34 27 24 20 20 19 17 17 14 13 14 15
14 13 13 12 12 11 12 11 11 12 12 12 12 13 15 18 20 34 98 75 99 93 98 100 98 99 88 67 60 57 52 39 36 36 36 32 28 24 23 22 20 21 20 23 17 14 13
16 15 14 13 12 12 11 11 11 10 10 10 11 12 14 20 25 37 98 99 100 92 100 96 96 96 65 60 61 54 52 48 42 37 38 37 27 30 26 30 31 28 31 25 20 14 15
23 18 15 14 12 11 10 9 8 8 8 10 13 15 16 24 40 77 99 99 100 100 100 98 96 93 65 53 46 42 42 47 44 36 35 39 32 33 29 32 52 39 34 25 24 16 16
35 25 22 15 12 10 8 8 7 8 12 16 18 18 30 46 93 99 99 100 100 99 99 72 55 51 47 41 45 42 43 45 38 29 29 30 37 41 34 32 29 30 31 32 19 14 17
53 40 42 38 20 10 10 9 9 12 15 22 41 55 60 96 99 95 100 100 90 82 72 73 69 58 52 51 52 46 37 41 34 35 26 34 52 33 28 29 34 35 32 33 27 19 17
66 54 70 68 29 18 11 10 13 18 16 24 61 79 97 96 99 100 98 100 93 88 88 61 49 50 50 49 50 47 41 40 35 33 30 32 35 32 36 44 65 58 47 33 42 35 19
73 57 69 72 63 40 26 15 18 21 24 44 73 85 98 100 100 100 100 99 97 91 98 45 38 40 43 48 46 45 45 40 36 37 32 34 28 36 44 54 57 76 43 32 38 32 29
78 68 65 76 73 74 66 42 27 37 43 81 89 88 97 98 97 100 97 99 97 91 95 19 26 40 40 47 31 28 37 43 42 40 54 48 43 44 45 49 39 63 40 45 41 30 26
65 76 64 78 75 80 80 66 53 49 54 94 92 91 97 100 100 99 99 98 96 96 78 31 26 30 35 42 37 28 36 41 46 62 82 70 69 54 39 35 47 59 63 42 37 32 46
72 66 69 81 82 79 79 79 73 70 79 99 100 99 100 100 98 97 99 97 97 96 40 39 30 28 32 33 34 30 37 55 59 94 85 68 63 63 48 61 51 65 87 81 77 70 61
67 68 75 84 87 94 93 88 90 89 99 99 100 100 100 100 100 100 98 98 98 47 47 27 27 26 37 31 30 29 35 56 44 52 67 87 84 60 50 54 64 59 70 63 75 66 50
80 75 75 83 84 99 94 100 100 99 100 100 100 99 98 99 100 100 96 98 78 71 40 38 30 36 35 30 30 29 32 50 46 45 62 53 44 26 27 28 31 63 57 36 46 42 44
80 75 72 80 91 100 96 94 99 100 100 97 95 100 100 100 100 100 100 84 52 37 32 30 45 58 45 36 34 27 28 32 43 45 33 49 59 28 25 23 25 33 36 47 50 68 46
63 66 68 80 93 100 98 99 99 98 98 99 100 99 100 100 100 100 89 58 42 33 29 35 39 56 46 44 30 29 35 30 37 29 29 38 40 44 28 30 36 30 62 53 58 53 54
57 62 63 74 90 100 100 90 84 99 97 88 94 99 100 100 100 98 72 51 42 36 34 35 39 44 46 46 36 54 41 34 38 28 38 38 44 50 33 31 26 26 27 41 75 53 65
57 71 64 78 93 97 99 87 90 99 94 98 100 98 100 100 98 91 55 47 39 40 37 44 47 42 38 51 53 84 45 52 50 39 38 35 46 43 37 32 26 26 24 28 32 37 36
79 65 68 79 91 98 99 91 88 99 100 100 93 98 99 100 98 74 60 55 47 37 37 41 61 45 47 50 41 63 69 58 46 39 54 40 34 36 42 37 29 36 28 26 32 51 32
81 80 72 90 92 96 99 98 92 88 99 99 99 80 68 97 96 61 58 50 49 47 36 37 59 55 57 61 51 52 47 49 43 49 36 36 43 30 24 25 24 28 28 27 27 26 30
83 87 80 76 72 91 100 99 97 87 97 99 98 64 52 49 50 58 68 63 44 41 37 46 51 49 57 67 49 44 40 39 37 36 33 34 36 35 30 25 24 24 19 18 19 18 19
88 98 89 74 90 91 99 100 86 86 100 97 93 81 56 54 51 65 69 46 42 44 41 45 47 43 59 60 37 32 31 32 32 36 38 38 46 36 24 26 23 22 24 20 18 14 22
97 98 82 84 91 79 99 95 82 87 99 92 93 93 66 63 53 53 45 41 43 48 46 42 50 37 40 39 36 34 33 32 31 30 29 35 36 32 27 30 34 52 47 49 54 44 52
91 83 81 74 82 98 99 98 92 82 99 98 100 94 79 84 36 43 45 38 45 41 58 35 40 40 40 34 37 40 40 38 37 28 26 23 30 42 54 38 40 48 55 86 84 79 80
98 94 97 87 98 99 100 98 87 92 99 99 97 100 97 84 42 41 40 42 48 47 47 52 56 52 41 37 40 39 44 30 48 49 33 34 37 50 47 56 51 86 52 48 67 75 65
100 99 99 100 100 99 95 95 82 98 97 95 93 95 93 98 59 52 50 46 44 41 44 45 49 49 45 52 62 49 46 32 48 57 66 56 56 57 50 51 85 71 51 60 92 92 79
99 99 99 99 97 95 84 90 65 79 65 84 94 89 96 79 69 59 53 49 45 37 46 44 47 48 41 53 44 51 58 44 57 93 57 56 54 54 43 62 83 63 57 80 90 86 85
99 99 96 93 79 69 78 63 59 64 87 91 100 76 66 78 76 77 72 66 58 51 40 46 44 36 42 41 36 40 55 60 60 66 63 81 93 88 83 90 82 79 88 94 90 85 99

GFSGBSN_850_rhum_108.txt.gz
RH
55 53 48 45 40 36 34 33 30 28 26 27 28 28 25 26 26 29 28 28 35 65 90 81 94 99 96 80 68 47 55 51 47 49 43 32 27 26 26 23 22 21 18 16 15 14 14
59 50 44 41 34 26 20 17 16 15 14 14 15 15 15 15 17 21 28 35 34 55 100 96 90 96 94 77 52 54 51 48 45 41 38 36 31 29 27 26 25 22 20 18 17 13 13
55 44 29 21 17 16 14 13 13 12 12 13 13 13 13 13 15 18 25 32 55 82 97 99 87 94 97 77 35 42 46 42 35 43 39 35 34 31 29 27 24 22 23 19 18 18 16
42 50 25 16 14 13 12 12 12 12 12 12 12 11 11 12 13 20 25 29 87 95 100 99 87 98 89 47 52 56 52 45 44 35 34 35 36 34 31 28 26 28 27 34 24 19 17
52 25 18 17 15 14 12 12 12 11 11 10 10 10 10 12 16 27 33 48 100 98 100 99 96 96 65 53 57 48 51 46 44 38 34 36 37 36 32 34 36 32 41 38 31 21 19
40 36 27 21 18 14 13 11 11 10 8 8 8 12 12 16 24 45 68 98 100 98 100 100 96 90 65 41 36 44 37 46 45 42 39 36 36 39 33 35 54 38 33 29 32 25 21
64 47 34 28 20 17 14 12 10 8 7 6 9 18 22 30 51 65 88 99 99 99 99 77 58 51 42 36 40 38 36 41 39 41 40 31 38 43 30 26 29 30 32 35 28 23 28
88 75 59 38 25 18 14 12 9 7 6 7 10 18 46 68 76 91 99 97 86 80 69 72 73 58 51 42 44 36 36 33 35 40 30 31 32 24 22 25 30 34 42 45 40 30 29
93 83 69 54 42 36 20 12 10 8 8 8 11 22 62 99 98 99 95 97 94 82 66 51 50 61 51 47 44 38 34 35 31 36 33 36 28 21 24 33 36 34 38 46 48 38 34
83 85 79 66 53 44 48 34 16 11 9 12 16 39 89 98 100 98 100 100 96 78 82 38 31 34 37 40 35 35 36 35 33 36 34 35 26 27 26 33 33 45 35 40 47 56 81
73 72 76 72 66 58 60 55 40 14 14 18 24 62 98 98 92 100 97 99 88 77 71 10 19 31 31 32 27 27 34 35 39 38 37 42 34 38 38 32 27 43 56 62 73 77 66
82 79 76 71 66 63 66 64 57 36 21 24 32 90 98 100 100 98 99 100 91 97 74 23 24 31 32 34 32 25 29 34 39 40 39 48 55 56 50 41 37 57 72 67 70 72 94
75 80 68 66 66 68 73 75 69 63 46 38 65 97 100 99 98 98 100 100 99 92 23 22 21 24 27 30 35 33 32 37 50 73 70 50 56 47 47 51 38 55 91 92 92 93 68
54 76 78 76 64 72 79 86 82 77 72 92 98 100 98 100 99 100 99 99 99 34 37 21 24 19 29 26 28 30 34 34 40 45 47 56 61 46 46 49 50 53 78 74 90 85 57
72 78 88 79 68 73 87 96 92 81 80 98 100 100 100 100 100 100 99 98 76 43 26 30 26 31 28 26 28 30 35 33 30 45 73 50 49 36 40 41 42 75 91 57 67 71 94
68 83 88 83 72 72 81 91 97 98 99 100 100 99 100 99 100 100 100 85 64 44 48 42 53 52 42 33 36 47 34 29 28 42 34 60 57 45 39 36 35 50 46 97 94 88 87
65 61 62 67 68 74 76 93 99 100 97 100 100 100 99 100 100 99 98 86 62 49 46 37 42 41 47 44 40 64 71 32 28 38 36 59 43 53 43 39 31 36 41 80 97 55 78
65 63 56 56 57 65 73 83 99 100 100 100 100 100 98 100 100 99 93 62 55 50 32 29 33 37 40 40 43 38 57 53 40 47 60 44 43 55 44 25 24 28 35 70 98 94 90
77 73 70 66 72 56 62 69 100 100 99 100 100 99 100 100 99 98 70 56 53 37 35 35 36 36 36 45 53 49 50 55 44 35 38 40 52 54 63 42 27 31 33 30 40 41 45
81 74 74 79 66 70 73 77 88 100 100 99 100 100 99 100 99 87 70 64 63 36 34 33 38 42 41 46 37 56 63 53 42 36 42 40 40 46 63 60 34 36 27 24 30 60 44
75 80 80 76 76 65 74 75 86 100 99 98 100 98 71 96 97 84 65 49 57 52 34 37 48 48 47 52 44 54 57 55 44 43 39 39 51 38 33 24 23 28 24 22 25 25 42
80 72 71 69 75 65 74 77 93 99 99 100 99 99 78 48 63 81 71 68 48 42 39 40 51 45 46 54 46 51 66 50 53 40 44 44 60 46 42 26 23 24 17 18 20 20 18
83 80 80 80 72 67 72 92 91 99 100 99 96 84 92 59 89 71 66 61 55 40 40 32 39 45 50 53 50 38 39 39 35 50 56 45 52 42 40 28 23 26 26 18 20 17 25
81 79 80 80 84 85 83 89 95 99 98 95 90 97 96 71 55 67 48 46 47 48 71 45 56 58 58 46 36 34 35 35 36 37 31 42 40 36 33 31 34 49 44 42 49 63 56
78 85 81 82 93 85 92 88 98 99 99 97 98 100 99 93 60 46 46 51 45 65 69 41 50 59 38 33 45 50 42 38 35 29 28 26 34 38 44 37 47 45 53 81 77 87 70
93 89 94 90 99 87 94 97 99 97 89 98 100 100 98 100 78 46 49 53 92 88 62 49 46 42 35 48 51 56 57 38 48 43 22 24 27 52 50 54 49 78 46 46 62 82 66
97 98 91 87 87 80 93 99 99 87 90 98 99 100 100 100 79 83 74 82 67 65 50 52 53 50 42 59 70 58 58 27 52 52 46 49 51 56 52 47 87 68 46 54 85 89 83
91 99 95 96 78 88 100 100 97 86 93 99 97 97 100 100 75 96 78 83 56 50 57 51 50 49 50 60 50 52 65 41 64 89 48 49 52 54 48 53 73 63 56 76 88 83 90
98 99 100 100 96 100 99 98 99 90 99 99 99 96 95 100 81 72 65 67 68 62 58 43 42 42 43 44 33 39 55 60 60 69 60 84 92 87 89 91 77 81 89 91 95 88 94